Weather History for Poughkeepsie, NY

Change the Weather History Date:

Wednesday, February 22, 2012

  Actual Average Record
Temperature  
Mean Temperature 45 °F 30 °F  
Max Temperature 56 °F 41 °F 61 °F (1976)
Min Temperature 34 °F 19 °F -5 °F (1978)
Degree Days  
Heating Degree Days 20 35  
Month to date heating degree days 659 814  
Since 1 July heating degree days 3499 4366  
Cooling Degree Days 0 0  
Month to date cooling degree days 0 0  
Year to date cooling degree days 0 0  
Moisture  
Dew Point 30 °F    
Average Humidity 64    
Maximum Humidity 96    
Minimum Humidity 32    
Precipitation  
Precipitation T in 0.09 in 0.87 in (2003)
Month to date precipitation 0.30 2.04  
Year to date precipitation 2.44 5.12  
Sea Level Pressure  
Sea Level Pressure 29.64 in    
Wind  
Wind Speed 5 mph (SSW)    
Max Wind Speed 18 mph    
Max Gust Speed 26 mph    
Visibility 10 miles    
Events      
T = Trace of Precipitation, MM = Missing Value Source: NWS Daily Summary

Daily Weather History Graph

Daily Weather History Graph

Search for Another Location

Airport:

Trip Planner

Search our weather history database for the weather conditions in past years. The results will help you decide how hot, cold, wet, or windy it might be!

Date:

Astronomy

Feb. 22, 2012 Rise Set
Actual Time 6:41 AM EST 5:37 PM EST
Civil Twilight 6:13 AM EST 6:05 PM EST
Nautical Twilight 5:41 AM EST 6:37 PM EST
Astronomical Twilight 5:09 AM EST 7:09 PM EST
Moon 6:37 AM EST (2/22) 6:42 PM EST (2/22)
Length of Visible Light 11h 51m
Length of Day
10h 55m
New Moon, 1% of the Moon is Illuminated
Feb 22
New Moon
Feb 29
First Quarter
Mar 8
Full
Mar 14
Last Quarter
Mar 22
New

Hourly Weather History & Observations

Time (EST) Temp. Windchill Dew Point Humidity Pressure Visibility Wind Dir Wind Speed Gust Speed Precip Events Conditions
12:53 AM 37.9 °F - 30.9 °F 76% 29.81 in 10.0 mi Calm Calm - N/A   Overcast
1:53 AM 37.9 °F - 32.0 °F 79% 29.79 in 10.0 mi Calm Calm - N/A   Overcast
2:53 AM 37.0 °F - 32.0 °F 82% 29.77 in 10.0 mi Calm Calm - N/A   Overcast
3:53 AM 37.0 °F - 33.1 °F 86% 29.74 in 10.0 mi Calm Calm - 0.00 in   Overcast
4:53 AM 39.0 °F 36.8 °F 34.0 °F 82% 29.71 in 10.0 mi NNW 3.5 mph - 0.00 in   Mostly Cloudy
5:53 AM 34.0 °F - 32.0 °F 92% 29.72 in 7.0 mi Calm Calm - N/A   Partly Cloudy
6:53 AM 37.4 °F 34.9 °F 33.8 °F 87% 29.72 in 8.0 mi SW 3.5 mph - N/A   Overcast
7:53 AM 41.0 °F - 33.1 °F 73% 29.73 in 10.0 mi Calm Calm - N/A   Clear
8:53 AM 45.0 °F 42.6 °F 33.1 °F 63% 29.73 in 10.0 mi SSW 4.6 mph - N/A   Clear
9:53 AM - - - N/A% 29.73 in 10.0 mi SW 9.2 mph - N/A   Clear
10:53 AM - - - N/A% 29.72 in 10.0 mi SW 15.0 mph - N/A   Clear
11:53 AM - - - N/A% 29.68 in 10.0 mi North - - N/A   Scattered Clouds
12:18 PM 53.6 °F - 28.4 °F 38% 29.65 in 4.0 mi WSW 10.4 mph - N/A   Clear
12:53 PM 53.1 °F - 28.0 °F 38% 29.63 in 10.0 mi SSW 9.2 mph - N/A   Mostly Cloudy
1:53 PM 53.1 °F - 26.1 °F 35% 29.60 in 10.0 mi WSW 11.5 mph 17.3 mph N/A   Partly Cloudy
2:53 PM 54.0 °F - 26.1 °F 34% 29.58 in 10.0 mi SW 13.8 mph 19.6 mph N/A   Mostly Cloudy
3:53 PM 54.0 °F - 26.1 °F 34% 29.57 in 10.0 mi SW 12.7 mph 21.9 mph N/A   Clear
4:53 PM 54.0 °F - 25.0 °F 33% 29.55 in 10.0 mi SSW 6.9 mph - N/A   Clear
5:53 PM 52.0 °F - 25.0 °F 35% 29.56 in 10.0 mi South 4.6 mph - N/A   Clear
6:53 PM 51.1 °F - 25.0 °F 36% 29.55 in 10.0 mi SSE 4.6 mph - N/A   Clear
7:53 PM 50.0 °F - 26.1 °F 39% 29.55 in 10.0 mi SSE 4.6 mph - N/A   Overcast
8:53 PM 48.9 °F - 32.0 °F 52% 29.55 in 10.0 mi South 6.9 mph - N/A   Overcast
9:53 PM 48.9 °F - 34.0 °F 56% 29.52 in 10.0 mi SSE 6.9 mph - N/A   Mostly Cloudy
10:53 PM 46.9 °F - 35.1 °F 63% 29.50 in 10.0 mi Calm Calm - N/A   Clear
11:53 PM 45.0 °F 43.5 °F 35.1 °F 68% 29.45 in 10.0 mi ESE 3.5 mph - N/A   Clear